Weather History for KAPC - October, 2012

Change the Weather History Date:

Saturday, October 6, 2012

  Actual Average Record
Temperature  
Mean Temperature 59 °F 61 °F  
Max Temperature 74 °F 77 °F 91 °F (2014)
Min Temperature 43 °F 45 °F 36 °F (2009)
Degree Days  
Heating Degree Days 6    
Month to date heating degree days 8  
Since 1 July heating degree days 143  
Cooling Degree Days 0    
Month to date cooling degree days 22  
Year to date cooling degree days 190  
Growing Degree Days 10 (Base 50)    
Moisture  
Dew Point 48 °F    
Average Humidity 69    
Maximum Humidity 100    
Minimum Humidity 38    
Precipitation  
Precipitation 0.00 in - 0.90 in (1920)
Month to date precipitation 0.00  
Year to date precipitation 13.77  
Since 1 July precipitation T  
Sea Level Pressure  
Sea Level Pressure 30.02 in    
Wind  
Wind Speed 6 mph (WSW)    
Max Wind Speed 17 mph    
Max Gust Speed 22 mph    
Visibility 6 miles    
Events Fog    
T = Trace of Precipitation, MM = Missing Value Source: NWS Daily Summary

Daily Weather History Graph

Daily Weather History Graph

Search for Another Location

Airport or City:

Trip Planner

Search our weather history database for the weather conditions in past years. The results will help you decide how hot, cold, wet, or windy it might be!

Date:

Astronomy

Oct. 06, 2012 Rise Set
Actual Time 7:09 AM PDT 6:43 PM PDT
Civil Twilight 6:43 AM PDT 7:09 PM PDT
Nautical Twilight 6:12 AM PDT 7:40 PM PDT
Astronomical Twilight 5:42 AM PDT 8:11 PM PDT
Moon 11:07 PM PDT (10/6) 1:04 PM PDT (10/6)
Length of Visible Light 12h 26m
Length of Day
11h 33m
Waning Gibbous, 64% of the Moon is Illuminated
Oct 6
Waning Gibbous
Oct 8
Last Quarter
Oct 15
New
Oct 21
First Quarter
Oct 29
Full

Hourly Weather History & Observations

Time (PDT) Temp. Windchill Dew Point Humidity Pressure Visibility Wind Dir Wind Speed Gust Speed Precip Events Conditions
12:54 AM 54.0 °F - 51.1 °F 90% 30.04 in - Calm Calm - N/A   Clear
1:54 AM 51.1 °F - 48.9 °F 92% 30.04 in - Calm Calm - N/A   Clear
2:35 AM 48.2 °F - 48.2 °F 100% 30.07 in 0.8 mi Calm Calm - N/A   Clear
2:43 AM 48.2 °F - 48.2 °F 100% 30.07 in 0.5 mi Calm Calm - N/A Fog Fog
2:54 AM 48.0 °F - 46.9 °F 96% 30.04 in 0.5 mi Calm Calm - N/A Fog Fog
3:07 AM 48.2 °F - 48.2 °F 100% 30.07 in 1.0 mi Calm Calm - N/A   Clear
3:12 AM 48.2 °F - 48.2 °F 100% 30.07 in 3.0 mi Calm Calm - N/A   Clear
3:17 AM 48.2 °F - 48.2 °F 100% 30.06 in 1.5 mi Calm Calm - N/A   Clear
3:22 AM 48.2 °F - 46.4 °F 93% 30.06 in 0.5 mi Calm Calm - N/A Fog Fog
3:38 AM 48.2 °F - 48.2 °F 100% 30.06 in 2.5 mi Calm Calm - N/A   Clear
3:45 AM 48.2 °F - 48.2 °F 100% 30.05 in 7.0 mi Calm Calm - N/A   Clear
3:54 AM 50.0 °F - 48.9 °F 96% 30.03 in 8.0 mi Calm Calm - N/A   Clear
4:14 AM 46.4 °F - 44.6 °F 93% 30.05 in 1.5 mi Calm Calm - N/A   Clear
4:22 AM 46.4 °F - 46.4 °F 100% 30.05 in 0.8 mi Calm Calm - N/A   Clear
4:44 AM 46.4 °F - 46.4 °F 100% 30.05 in 0.5 mi Calm Calm - N/A Fog Fog
4:48 AM 46.4 °F 45.2 °F 44.6 °F 93% 30.05 in 1.2 mi SSE 3.5 mph - N/A   Partly Cloudy
4:54 AM 46.0 °F - 45.0 °F 96% 30.03 in 7.0 mi Calm Calm - N/A   Partly Cloudy
5:40 AM 48.2 °F - 46.4 °F 93% 30.05 in 1.8 mi Calm Calm - N/A   Scattered Clouds
5:48 AM 46.4 °F - 46.4 °F 100% 30.05 in 3.0 mi Calm Calm - N/A   Scattered Clouds
5:54 AM 48.0 °F - 46.0 °F 93% 30.03 in 8.0 mi Calm Calm - N/A   Partly Cloudy
6:54 AM 46.0 °F - 44.1 °F 93% 30.03 in 10.0 mi Calm Calm - N/A   Clear
7:54 AM 46.9 °F - 46.0 °F 97% 30.04 in 10.0 mi Calm Calm - N/A   Clear
8:54 AM 55.0 °F - 51.1 °F 86% 30.05 in 10.0 mi Calm Calm - N/A   Clear
9:54 AM 60.1 °F - 51.1 °F 72% 30.05 in 10.0 mi WSW 4.6 mph - N/A   Clear
10:54 AM 63.0 °F - 51.1 °F 65% 30.04 in 10.0 mi Variable 3.5 mph - N/A   Clear
11:54 AM 68.0 °F - 48.9 °F 50% 30.03 in 10.0 mi West 6.9 mph - N/A   Clear
12:54 PM 73.0 °F - 50.0 °F 44% 30.01 in 10.0 mi West 13.8 mph 20.7 mph N/A   Clear
1:54 PM 72.0 °F - 50.0 °F 46% 29.98 in 10.0 mi SSW 12.7 mph - N/A   Clear
2:54 PM 73.0 °F - 48.9 °F 42% 29.97 in 10.0 mi WSW 11.5 mph - N/A   Clear
3:54 PM 73.0 °F - 46.0 °F 38% 29.95 in 10.0 mi WSW 11.5 mph - N/A   Clear
4:54 PM 72.0 °F - 48.9 °F 44% 29.94 in 10.0 mi SW 11.5 mph - N/A   Clear
5:54 PM 68.0 °F - 48.9 °F 50% 29.93 in 10.0 mi West 15.0 mph - N/A   Clear
6:54 PM 62.1 °F - 51.1 °F 67% 29.94 in 10.0 mi West 15.0 mph 20.7 mph N/A   Clear
7:54 PM 59.0 °F - 52.0 °F 78% 29.95 in 10.0 mi West 11.5 mph - N/A   Clear
8:54 PM 57.9 °F - 53.1 °F 84% 29.95 in 10.0 mi West 12.7 mph - N/A   Clear
9:54 PM 57.0 °F - 53.1 °F 87% 29.95 in 10.0 mi West 9.2 mph - N/A   Clear
10:54 PM 55.0 °F - 52.0 °F 89% 29.96 in 10.0 mi West 5.8 mph - N/A   Clear
11:54 PM 54.0 °F - 51.1 °F 90% 29.96 in 10.0 mi Calm Calm - N/A   Clear